PU3XGS-13 Weather Reports


time (UTC)temp
C
wind
direction
speed
KPH
gust
KPH
rain 1hr
cm
rain 24hr
cm
rain mn
cm
humidity
%
barometer
mb
20260508073633 21 0.0 0.0 0.00 0.00 0.00 62 1004.3
20260508065633 21 0.0 0.0 0.00 0.00 0.00 63 1003.9
20260508061633 22 0.0 0.0 0.00 0.00 0.00 68 1003.4
20260508053633 24 0.0 0.0 0.00 0.00 0.00 67 1003.0
20260508045633 26 0.0 0.0 0.00 0.00 0.00 58 1001.6
20260508041633 25 0.0 0.0 0.00 0.00 0.00 60 1001.7
20260508033633 25 0.0 0.0 0.00 0.00 0.00 57 1002.5
20260508025634 28 0.0 0.0 0.00 0.00 0.00 40 1002.2
20260508021634 31 0.0 0.0 0.00 0.00 0.00 38 1000.3
20260508013634 31 0.0 0.0 0.00 0.00 0.00 37 999.8
20260508005634 31 0.0 0.0 0.00 0.00 0.00 37 999.9
20260508001633 30 0.0 0.0 0.00 0.00 0.00 38 1000.1
20260507233633 30 0.0 0.0 0.00 0.00 0.00 41 1000.5
20260507225633 30 0.0 0.0 0.00 0.00 0.00 43 1000.6
20260507221634 30 0.0 0.0 0.00 0.00 0.00 44 1000.8
20260507213633 31 0.0 0.0 0.00 0.00 0.00 39 1000.8
20260507205633 32 0.0 0.0 0.00 0.00 0.00 38 1000.9
20260507201633 32 0.0 0.0 0.00 0.00 0.00 35 1000.8
20260507193633 33 0.0 0.0 0.00 0.00 0.00 34 1001.0
20260507185633 33 0.0 0.0 0.00 0.00 0.00 34 1001.1
20260507181634 33 0.0 0.0 0.00 0.00 0.00 33 1000.7
20260507173633 34 0.0 0.0 0.00 0.00 0.00 32 1000.7
20260507165634 35 0.0 0.0 0.00 0.00 0.00 31 1001.0
20260507161634 36 0.0 0.0 0.00 0.00 0.00 30 1001.9
20260507153636 36 0.0 0.0 0.00 0.00 0.00 32 1002.8
20260507145633 34 0.0 0.0 0.00 0.00 0.00 36 1003.8
20260507141633 33 0.0 0.0 0.00 0.00 0.00 38 1005.1
20260507133633 32 0.0 0.0 0.00 0.00 0.00 42 1006.3
20260507125633 31 0.0 0.0 0.00 0.00 0.00 46 1007.0
20260507121633 28 0.0 0.0 0.00 0.00 0.00 56 1007.2
20260507113634 28 0.0 0.0 0.00 0.00 0.00 55 1007.2
20260507105633 26 0.0 0.0 0.00 0.00 0.00 60 1007.0
20260507101634 26 0.0 0.0 0.00 0.00 0.00 60 1007.1
20260507093633 25 0.0 0.0 0.00 0.00 0.00 62 1007.1
20260507085634 26 0.0 0.0 0.00 0.00 0.00 58 1007.1
20260507081633 26 0.0 0.0 0.00 0.00 0.00 59 1007.3